This demonstration page uses our WeatherBlox Daily Observations layout. Learn more.

Left ArrowRight Arrow

36.17497, -115.13722

Hourly Observations for October 24, 2016

Temp ( °F °C ) Dew Point ( °F °C ) Humidity (%) Winds ( mph kmh ) Pressure ( in mb ) Visibility ( mi km ) Precip ( " mm )
12:53 am 00:53 Clear 69 20.6 54 12.2 59 59 NNW 16 26 30.05 1018 10 16.0934 0 0
1:53 am 01:53 Mostly Cloudy 69 20.6 54 12.2 59 59 NNW 17 28 30.07 1018 10 16.0934 0 0
2:53 am 02:53 Mostly Cloudy 68 20 53 11.7 59 59 NNW 17 28 30.06 1018 10 16.0934 0 0
3:53 am 03:53 Mostly Cloudy 67 19.4 55 12.8 66 66 NW 22 35 30.08 1019 10 16.0934 0 0
4:53 am 04:53 Cloudy 66 18.9 55 12.8 68 68 N 10 17 30.07 1018 10 16.0934 0 0
5:53 am 05:53 Cloudy 65 18.3 56 13.3 73 73 WNW 12 19 30.1 1019 10 16.0934 0 0
6:53 am 06:53 Cloudy 64 17.8 59 15 84 84 Calm 30.12 1020 8 12.87472 0.03 0.762
7:53 am 07:53 Mostly Cloudy 63 17.2 60 15.6 90 90 Calm 30.12 1020 10 16.0934 0.02 0.508
8:53 am 08:53 Mostly Sunny 65 18.3 60 15.6 84 84 SW 3 6 30.12 1020 10 16.0934 0 0
9:53 am 09:53 Mostly Cloudy 66 18.9 59 15 78 78 S 7 11 30.14 1021 10 16.0934 0 0
10:53 am 10:53 Cloudy 68 20 57 13.9 68 68 Calm 30.14 1021 10 16.0934 0.01 0.254
11:53 am 11:53 Partly Cloudy 69 20.6 56 13.3 63 63 Calm 30.13 1020 10 16.0934 0 0
12:53 pm 12:53 Cloudy 67 19.4 58 14.4 73 73 S 7 11 30.14 1021 10 16.0934 0.02 0.508
1:53 pm 13:53 Mostly Cloudy 64 17.8 60 15.6 87 87 ESE 12 19 30.09 1019 10 16.0934 0.07 1.778
2:53 pm 14:53 Mostly Cloudy 64 17.8 60 15.6 87 87 SE 10 17 30.08 1019 9 14.48406 0.01 0.254
3:53 pm 15:53 Partly Cloudy 64 17.8 59 15 84 84 E 12 19 30.09 1019 10 16.0934 0 0
4:10 pm 16:10 Partly Cloudy with Nearby Thunderstorms 64 18 59 15 83 83 ESE 6 9 30 1016 10 16.0934 0 0
4:53 pm 16:53 Mostly Cloudy with Nearby Thunderstorms 65 18.3 58 14.4 78 78 ENE 7 11 30.06 1018 10 16.0934 0 0
5:16 pm 17:16 Mostly Sunny 64 18 57 14 78 78 ESE 9 15 30 1016 10 16.0934 0 0
5:51 pm 17:51 Sunny with Nearby Thunderstorms 64 18 57 14 78 78 ESE 7 11 30 1016 10 16.0934 0 0
5:53 pm 17:53 Sunny with Nearby Thunderstorms 64 17.8 58 14.4 81 81 ESE 7 11 30.07 1018 10 16.0934 0 0
6:15 pm 18:15 Clear 63 17.2 58 14.4 84 84 ESE 5 7 30.03 1017 10 16.0934 0 0
6:33 pm 18:33 Clear with Thunderstorms 63 17.2 58 14.4 84 84 ESE 7 11 30.03 1017 10 16.0934 0 0
6:53 pm 18:53 Clear with Nearby Thunderstorms 63 17.2 58 14.4 84 84 E 5 7 30.09 1019 10 16.0934 0 0
7:05 pm 19:05 Partly Cloudy 63 17.2 58 14.4 84 84 SE 7 11 30.03 1017 10 16.0934 0 0
7:21 pm 19:21 Cloudy with Nearby Thunderstorms 63 17.2 59 15 87 87 S 6 9 30.03 1017 10 16.0934 0 0
7:36 pm 19:36 Cloudy 63 17.2 59 15 87 87 Calm 30.03 1017 10 16.0934 0 0
7:46 pm 19:46 Mostly Cloudy with Nearby Thunderstorms 63 17 59 15 88 88 SE 3 6 30.03 1017 10 16.0934 0 0
7:53 pm 19:53 Mostly Cloudy with Thunderstorms 63 17.2 59 15 87 87 Calm 30.09 1019 10 16.0934 0 0
8:27 pm 20:27 Clear with Nearby Thunderstorms 63 17.2 58 14.4 84 84 ESE 5 7 30.03 1017 10 16.0934 0 0
8:44 pm 20:44 Clear 63 17 57 14 83 83 Calm 30.03 1017 10 16.0934 0 0
8:53 pm 20:53 Mostly Clear 62 16.7 58 14.4 86 86 Calm 30.1 1019 10 16.0934 0 0
9:16 pm 21:16 Mostly Cloudy 63 17 59 15 88 88 SSE 7 11 30.03 1017 10 16.0934 0 0
9:40 pm 21:40 Partly Cloudy with Nearby Thunderstorms 63 17 57 14 83 83 ESE 5 7 30.03 1017 10 16.0934 0 0
9:53 pm 21:53 Mostly Clear with Nearby Thunderstorms 62 16.7 58 14.4 86 86 ESE 3 6 30.11 1020 10 16.0934 0 0
10:18 pm 22:18 Clear 63 17 57 14 83 83 ESE 3 6 30.03 1017 10 16.0934 0 0
10:53 pm 22:53 Clear 62 16.7 58 14.4 86 86 Calm 30.12 1020 10 16.0934 0 0
11:04 pm 23:04 Clear with Thunderstorms 63 17 57 14 83 83 Calm 30.06 1018 10 16.0934 0 0
11:19 pm 23:19 Partly Cloudy 62 16.7 58 14.4 86 86 Calm 30.03 1017 10 16.0934 0 0
11:26 pm 23:26 Mostly Cloudy 63 17 57 14 83 83 Calm 30.03 1017 10 16.0934 0 0
11:35 pm 23:35 Partly Cloudy 62 16.7 58 14.4 86 86 Calm 30.06 1018 10 16.0934 0 0
11:53 pm 23:53 Clear 59 15 57 13.9 93 93 Calm 30.12 1020 10 16.0934 0 0

Powered by AerisWeather